Wautoma, WI

9:53 AM CST on February 24, 2017 (GMT -0600)
Wautoma

Weather History for KY50 - October, 2012

Change the Weather History Date:

Tuesday, October 16, 2012

  Actual Average (KPCZ) Record (KPCZ)
Temperature  
Mean Temperature 51 °F -  
Max Temperature 66 °F 58 °F 84 °F (1968)
Min Temperature 36 °F 37 °F 20 °F (1952)
Degree Days  
Heating Degree Days 14    
Growing Degree Days 1 (Base 50)    
Moisture  
Dew Point 43 °F    
Average Humidity 76    
Maximum Humidity 100    
Minimum Humidity 43    
Precipitation  
Precipitation 0.00 in - - ()
Sea Level Pressure  
Sea Level Pressure 29.66 in    
Wind  
Wind Speed 3 mph (SE)    
Max Wind Speed 14 mph    
Max Gust Speed 21 mph    
Visibility 10 miles    
Events      
Averages and records for this station are not official NWS values.
T = Trace of Precipitation, MM = Missing Value Source: NWS Daily Summary

Daily Weather History Graph

Daily Weather History Graph

Search for Another Location

Airport or City:

Trip Planner

Search our weather history database for the weather conditions in past years. The results will help you decide how hot, cold, wet, or windy it might be!

Date:

Astronomy

Oct. 16, 2012 Rise Set
Actual Time 7:13 AM CDT 6:10 PM CDT
Civil Twilight 6:44 AM CDT 6:39 PM CDT
Nautical Twilight 6:11 AM CDT 7:13 PM CDT
Astronomical Twilight 5:37 AM CDT 7:46 PM CDT
Moon 8:41 AM CDT (10/16) 6:50 PM CDT (10/16)
Length of Visible Light 11h 55m
Length of Day
10h 57m
New Moon, 2% of the Moon is Illuminated
Oct 16
New Moon
Oct 21
First Quarter
Oct 29
Full
Nov 6
Last Quarter
Nov 13
New

Hourly Weather History & Observations

Time (CDT) Temp. Windchill Dew Point Humidity Pressure Visibility Wind Dir Wind Speed Gust Speed Precip Events Conditions
12:56 AM 36.0 °F - 36.0 °F 100% 29.91 in 8.0 mi Calm Calm - N/A   Mostly Cloudy
1:56 AM 36.9 °F - 36.9 °F 100% 29.90 in 8.0 mi Calm Calm - N/A   Mostly Cloudy
2:56 AM 37.9 °F - 37.9 °F 100% 29.87 in 10.0 mi Calm Calm - N/A   Mostly Cloudy
3:56 AM 38.8 °F - 38.8 °F 100% 29.85 in 10.0 mi Calm Calm - N/A   Scattered Clouds
5:56 AM 39.9 °F - 39.9 °F 100% 29.84 in 7.0 mi Calm Calm - 0.00 in   Partly Cloudy
6:56 AM 43.0 °F - 41.0 °F 93% 29.82 in 10.0 mi Calm Calm - N/A   Scattered Clouds
7:56 AM 43.9 °F 42.3 °F 41.0 °F 90% 29.80 in 10.0 mi SSE 3.5 mph - N/A   Partly Cloudy
8:56 AM 45.9 °F 41.7 °F 41.0 °F 83% 29.78 in 10.0 mi SSE 8.1 mph - N/A   Clear
9:56 AM 48.9 °F - 41.9 °F 77% 29.75 in 10.0 mi SSE 10.4 mph - N/A   Clear
11:56 AM 59.9 °F - 45.0 °F 58% 29.70 in 10.0 mi SSE 6.9 mph - N/A   Clear
12:56 PM 63.9 °F - 43.0 °F 47% 29.65 in 10.0 mi SE 12.7 mph 20.7 mph N/A   Clear
1:56 PM 66.9 °F - 43.9 °F 43% 29.60 in 10.0 mi SSE 12.7 mph - N/A   Clear
2:56 PM 66.9 °F - 45.0 °F 45% 29.57 in 10.0 mi South 10.4 mph 19.6 mph N/A   Clear
3:56 PM 65.8 °F - 45.0 °F 47% 29.56 in 10.0 mi SE 13.8 mph 17.3 mph N/A   Partly Cloudy
4:56 PM 64.9 °F - 45.9 °F 50% 29.54 in 10.0 mi SE 12.7 mph - N/A   Clear
5:56 PM 61.9 °F - 46.9 °F 58% 29.52 in 10.0 mi SE 5.8 mph - N/A   Clear
6:56 PM 59.0 °F - 46.9 °F 64% 29.50 in 10.0 mi ESE 4.6 mph - N/A   Clear
7:56 PM 56.8 °F - 46.9 °F 69% 29.51 in 10.0 mi East 3.5 mph - N/A   Clear
8:56 PM 54.9 °F - 46.9 °F 75% 29.49 in 10.0 mi ENE 3.5 mph - 0.00 in   Scattered Clouds
9:56 PM 52.0 °F - 46.9 °F 83% 29.48 in 10.0 mi Calm Calm - 0.00 in   Clear
10:56 PM 50.0 °F - 46.9 °F 89% 29.47 in 10.0 mi Calm Calm - N/A   Mostly Cloudy
11:56 PM 47.8 °F - 46.9 °F 97% 29.45 in 9.0 mi Calm Calm - N/A   Clear